This demonstration page uses our WeatherBlox Daily Observations layout. Learn more.

Left ArrowRight Arrow

Hourly Observations for May 29, 2020

Temp ( °F °C ) Dew Point ( °F °C ) Humidity (%) Winds ( mph kmh ) Pressure ( in mb ) Visibility ( mi km ) Precip ( " mm )
12:51 am 00:51 Clear 80 26.7 35 1.7 20 20 SSE 5 7 29.8 1009 10 16.0934 0 0
1:51 am 01:51 Clear 85 29.4 39 3.9 20 20 ESE 13 20 29.82 1010 10 16.0934 0 0
2:51 am 02:51 undefined 85 29.4 44 6.7 24 24 E 9 15 29.84 1011 10 16.0934 0 0
3:51 am 03:51 Clear 83 28.3 45 7.2 26 26 ESE 16 26 29.87 1012 10 16.0934 0 0
4:51 am 04:51 Clear 81 27.2 44 6.7 27 27 ESE 10 17 29.9 1013 10 16.0934 0 0
5:51 am 05:51 Sunny 82 27.8 43 6.1 25 25 ESE 13 20 29.92 1013 10 16.0934 0 0
6:51 am 06:51 Sunny 85 29.4 43 6.1 23 23 E 17 28 29.93 1014 10 16.0934 0 0
7:51 am 07:51 Sunny 87 30.6 45 7.2 23 23 ESE 20 31 29.95 1014 10 16.0934 0 0
8:51 am 08:51 Sunny 91 32.8 47 8.3 22 22 ESE 15 24 29.95 1014 10 16.0934 0 0
9:51 am 09:51 Sunny 94 34.4 47 8.3 20 20 SE 16 26 29.92 1013 10 16.0934 0 0
10:51 am 10:51 Sunny 97 36.1 47 8.3 18 18 SE 17 28 29.9 1013 10 16.0934 0 0
12:51 pm 12:51 Sunny 102 38.9 44 6.7 14 14 SE 13 20 29.85 1011 10 16.0934 0 0
1:51 pm 13:51 Sunny 103 39.4 43 6.1 13 13 SE 13 20 29.81 1009 10 16.0934 0 0
2:51 pm 14:51 Sunny 104 40 42 5.6 12 12 S 12 19 29.76 1008 10 16.0934 0 0
3:09 pm 15:09 Sunny 103 39.4 42 5.6 12 12 SSE 14 22 29.63 1004 10 16.0934 0 0
3:51 pm 15:51 Sunny 103 39.4 40 4.4 11 11 SE 13 20 29.75 1007 10 16.0934 0 0
4:51 pm 16:51 Sunny 103 39.4 42 5.6 12 12 S 15 24 29.73 1007 10 16.0934 0 0
5:51 pm 17:51 Sunny 101 38.3 41 5 13 13 ESE 8 13 29.73 1007 10 16.0934 0 0
6:51 pm 18:51 Sunny 95 35 44 6.7 17 17 NNW 12 19 29.76 1008 10 16.0934 0 0
7:51 pm 19:51 Clear 91 32.8 46 7.8 21 21 NNW 14 22 29.79 1009 10 16.0934 0 0
8:51 pm 20:51 Clear 90 32.2 47 8.3 23 23 WNW 10 17 29.81 1010 10 16.0934 0 0
9:51 pm 21:51 Clear 87 30.6 48 8.9 26 26 W 7 11 29.83 1010 10 16.0934 0 0
10:51 pm 22:51 Clear 82 27.8 48 8.9 31 31 NNW 6 9 29.83 1010 10 16.0934 0 0
11:51 pm 23:51 Clear 82 27.8 47 8.3 29 29 NW 6 9 29.82 1010 10 16.0934 0 0

Powered by AerisWeather